EW0466 Weather Reports


time (UTC)temp
F
wind
direction
speed
knots
gust
knots
rain 1hr
in
rain 24hr
in
rain mn
in
humidity
%
barometer
mb
20260505153044 75 180 3.5 9.6 0.00 0.00 0.00 52 1014.6
20260505152526 74 237 3.5 9.6 0.00 0.00 0.00 49 1014.7
20260505152025 74 74 2.6 7.8 0.00 0.00 0.00 50 1014.9
20260505151539 74 150 4.3 10.4 0.00 0.00 0.00 50 1014.8
20260505151026 73 5 3.5 10.4 0.00 0.00 0.00 52 1014.7
20260505150526 73 215 4.3 10.4 0.00 0.00 0.00 51 1014.6
20260505140527 69 195 2.6 9.6 0.00 0.00 0.00 59 1014.7
20260505125027 65 188 3.5 9.6 0.00 0.00 0.00 64 1015.1
20260505124540 64 252 2.6 8.7 0.00 0.00 0.00 65 1015.0
20260505124027 64 293 3.5 9.6 0.00 0.00 0.00 65 1015.0
20260505123525 64 142 2.6 9.6 0.00 0.00 0.00 66 1014.9
20260505123042 64 259 2.6 13.0 0.00 0.00 0.00 66 1015.0
20260505122527 63 262 1.7 13.0 0.00 0.00 0.00 68 1015.0
20260505122027 63 286 4.3 13.0 0.00 0.00 0.00 68 1014.8
20260505121541 62 169 3.5 11.3 0.00 0.00 0.00 69 1014.9
20260505121028 62 221 4.3 13.0 0.00 0.00 0.00 69 1014.9
20260505120527 61 271 3.5 13.0 0.00 0.00 0.00 70 1014.8
20260505120100 61 220 5.2 13.0 0.00 0.00 0.00 71 1014.9
20260505115530 60 302 1.7 11.3 0.00 0.00 0.00 73 1014.9
20260505115026 60 205 2.6 9.6 0.00 0.00 0.00 74 1014.8
20260505114538 59 145 2.6 7.8 0.00 0.00 0.00 74 1014.6
20260505114026 59 0 2.6 8.7 0.00 0.00 0.00 75 1014.6
20260505113527 59 0 2.6 8.7 0.00 0.00 0.00 75 1014.3
20260505113045 58 154 2.6 8.7 0.00 0.00 0.00 76 1014.4
20260505112526 58 173 0.0 5.2 0.00 0.00 0.00 76 1014.4
20260505112027 58 346 1.7 5.2 0.00 0.00 0.00 76 1014.3
20260505111539 58 0 1.7 6.1 0.00 0.00 0.00 76 1014.3
20260505111027 58 183 1.7 6.1 0.00 0.00 0.00 76 1014.3
20260505110527 58 127 0.9 4.3 0.00 0.00 0.00 76 1014.2
20260505102027 59 225 0.0 7.0 0.00 0.00 0.00 73 1014.1
20260505101542 59 176 0.9 7.0 0.00 0.00 0.00 73 1014.0
20260505101027 59 202 0.0 3.5 0.00 0.00 0.00 73 1014.0
20260505100527 59 261 0.9 2.6 0.00 0.00 0.00 73 1013.9
20260505100041 59 261 0.0 6.1 0.00 0.00 0.00 73 1013.9
20260505095526 59 342 1.7 6.1 0.00 0.00 0.00 73 1013.8
20260505095026 59 216 0.0 3.5 0.00 0.00 0.00 73 1013.9
20260505094538 59 0 0.0 3.5 0.00 0.00 0.00 73 1013.9
20260505094026 59 138 0.0 2.6 0.00 0.00 0.00 73 1013.8
20260505093526 59 278 0.0 3.5 0.00 0.00 0.00 72 1013.7
20260505093041 60 246 0.0 4.3 0.00 0.00 0.00 72 1013.7
20260505092526 60 119 0.9 5.2 0.00 0.00 0.00 72 1013.8
20260505092026 60 231 0.9 5.2 0.00 0.00 0.00 72 1013.7
20260505091540 60 0 0.0 5.2 0.00 0.00 0.00 72 1013.7
20260505091025 60 0 0.0 4.3 0.00 0.00 0.00 72 1013.7
20260505090527 60 0 0.9 3.5 0.00 0.00 0.00 72 1013.7
20260505090046 60 209 0.0 3.5 0.00 0.00 0.00 71 1013.6
20260505085527 60 175 0.9 7.0 0.00 0.00 0.00 71 1013.6
20260505085030 60 250 0.9 7.0 0.00 0.00 0.00 71 1013.4
20260505084544 60 271 0.9 7.0 0.00 0.00 0.00 71 1013.5
20260505084029 60 174 0.0 6.1 0.00 0.00 0.00 71 1013.5
20260505083526 60 0 0.9 5.2 0.00 0.00 0.00 70 1013.6
20260505083038 61 78 0.0 5.2 0.00 0.00 0.00 70 1013.5
20260505082526 61 0 0.9 5.2 0.00 0.00 0.00 70 1013.6
20260505082026 61 209 1.7 5.2 0.00 0.00 0.00 70 1013.6
20260505081540 61 0 0.9 5.2 0.00 0.00 0.00 70 1013.6
20260505081027 61 0 0.0 6.1 0.00 0.00 0.00 70 1013.6
20260505080526 61 0 1.7 6.1 0.00 0.00 0.00 70 1013.7
20260505080039 61 267 0.9 5.2 0.00 0.00 0.00 70 1013.6
20260505075527 61 0 1.7 7.0 0.00 0.00 0.00 70 1013.7
20260505075027 61 0 2.6 7.0 0.00 0.00 0.00 70 1013.5
20260505074543 61 242 1.7 7.0 0.00 0.00 0.00 70 1013.5
20260505074027 61 227 2.6 7.0 0.00 0.00 0.00 70 1013.5
20260505073527 61 128 0.9 7.0 0.00 0.00 0.00 70 1013.5
20260505073059 61 0 1.7 7.0 0.00 0.00 0.00 70 1013.3
20260505072527 61 0 0.0 7.0 0.00 0.00 0.00 70 1013.3
20260505072027 61 0 0.9 7.0 0.00 0.00 0.00 70 1013.3
20260505071541 61 178 0.0 7.0 0.00 0.00 0.00 70 1013.3
20260505071026 61 157 1.7 7.0 0.00 0.00 0.00 70 1013.3
20260505070526 61 118 0.9 4.3 0.00 0.00 0.00 70 1013.3
20260505070039 62 0 0.9 4.3 0.00 0.00 0.00 69 1013.3
20260505065527 62 173 1.7 5.2 0.00 0.00 0.00 69 1013.4
20260505065025 62 150 0.9 5.2 0.00 0.00 0.00 69 1013.3
20260505064545 62 122 1.7 5.2 0.00 0.00 0.00 69 1013.3
20260505064027 62 0 0.9 5.2 0.00 0.00 0.00 69 1013.3
20260505063527 62 153 0.9 4.3 0.00 0.00 0.00 69 1013.2
20260505063039 62 146 1.7 6.1 0.00 0.00 0.00 68 1013.2
20260505062527 62 208 0.9 6.1 0.00 0.00 0.00 68 1013.3
20260505062026 62 143 1.7 6.1 0.00 0.00 0.00 68 1013.4
20260505061549 63 213 2.6 6.1 0.00 0.00 0.00 68 1013.3
20260505061026 63 200 0.9 5.2 0.00 0.00 0.00 68 1013.4
20260505060526 63 0 1.7 5.2 0.00 0.00 0.00 67 1013.4
20260505060044 63 201 0.9 7.8 0.00 0.00 0.00 67 1013.4
20260505055526 63 73 1.7 8.7 0.00 0.00 0.00 67 1013.3
20260505055027 63 159 1.7 8.7 0.00 0.00 0.00 66 1013.4
20260505054600 63 151 1.7 7.0 0.00 0.00 0.00 67 1013.2
20260505054026 63 94 1.7 7.8 0.00 0.00 0.00 66 1013.3
20260505053526 64 196 2.6 7.8 0.00 0.00 0.00 66 1013.3
20260505053059 64 254 2.6 6.1 0.00 0.00 0.00 66 1013.5
20260505052526 64 0 1.7 8.7 0.00 0.00 0.00 66 1013.2
20260505052027 64 219 1.7 8.7 0.00 0.00 0.00 66 1013.2
20260505051542 64 169 3.5 8.7 0.00 0.00 0.00 66 1013.3
20260505051030 64 215 2.6 8.7 0.00 0.00 0.00 66 1013.2
20260505050526 64 209 2.6 9.6 0.00 0.00 0.00 66 1013.3
20260505041537 64 254 2.6 7.0 0.00 0.00 0.00 62 1013.2
20260505041026 64 269 1.7 8.7 0.00 0.00 0.00 62 1013.1
20260505040526 64 262 3.5 8.7 0.00 0.00 0.00 61 1012.9
20260505040046 64 92 2.6 7.8 0.00 0.00 0.00 60 1013.1
20260505035525 64 161 1.7 7.8 0.00 0.00 0.00 59 1013.1
20260505035026 64 205 2.6 7.8 0.00 0.00 0.00 59 1013.0
20260505034538 64 194 1.7 7.8 0.00 0.00 0.00 58 1012.9
20260505034027 63 207 2.6 7.8 0.00 0.00 0.00 58 1013.0
20260505033527 63 83 0.0 6.1 0.00 0.00 0.00 57 1012.9
20260505033039 63 184 0.9 6.1 0.00 0.00 0.00 57 1013.0
20260505032527 62 211 0.0 6.1 0.00 0.00 0.00 57 1012.9
20260505032026 62 101 0.9 6.1 0.00 0.00 0.00 58 1012.9
20260505031548 61 134 0.0 6.1 0.00 0.00 0.00 60 1012.9
20260505031026 61 141 0.0 2.6 0.00 0.00 0.00 61 1012.8
20260505030526 61 76 0.0 2.6 0.00 0.00 0.00 61 1012.7
20260505030038 60 0 0.0 1.7 0.00 0.00 0.00 61 1012.8
20260505025526 60 0 0.0 1.7 0.00 0.00 0.00 62 1012.7
20260505025025 60 0 0.0 1.7 0.00 0.00 0.00 62 1012.8
20260505024544 60 0 0.0 0.9 0.00 0.00 0.00 63 1012.6
20260505024026 59 0 0.0 0.0 0.00 0.00 0.00 64 1012.6
20260505023528 59 0 0.0 0.9 0.00 0.00 0.00 64 1012.6
20260505023047 59 0 0.0 0.9 0.00 0.00 0.00 65 1012.6
20260505022526 60 0 0.0 0.9 0.00 0.00 0.00 66 1012.5
20260505022027 60 0 0.0 0.0 0.00 0.00 0.00 64 1012.6
20260505021539 60 0 0.0 1.7 0.00 0.00 0.00 64 1012.5
20260505021026 60 0 0.0 1.7 0.00 0.00 0.00 64 1012.4
20260505020526 60 0 0.0 0.9 0.00 0.00 0.00 64 1012.4
20260505020038 60 0 0.0 0.0 0.00 0.00 0.00 63 1012.3
20260505015527 60 0 0.0 0.0 0.00 0.00 0.00 63 1012.4
20260505015027 61 0 0.0 0.0 0.00 0.00 0.00 62 1012.4
20260505014538 61 0 0.0 0.0 0.00 0.00 0.00 61 1012.4
20260505014026 61 0 0.0 0.0 0.00 0.00 0.00 61 1012.3
20260505013526 61 0 0.0 0.0 0.00 0.00 0.00 61 1012.4
20260505013037 61 0 0.0 0.0 0.00 0.00 0.00 60 1012.4
20260505012526 62 0 0.0 0.0 0.00 0.00 0.00 60 1012.3
20260505012026 62 0 0.0 0.0 0.00 0.00 0.00 58 1012.2
20260505011544 62 0 0.0 0.0 0.00 0.00 0.00 58 1012.2
20260505011025 63 0 0.0 0.0 0.00 0.00 0.00 59 1012.1
20260505010526 63 0 0.0 0.0 0.00 0.00 0.00 58 1012.1
20260505010043 63 0 0.0 0.0 0.00 0.00 0.00 56 1012.0
20260505005526 63 0 0.0 0.0 0.00 0.00 0.00 56 1012.1
20260505005027 63 0 0.0 0.0 0.00 0.00 0.00 54 1011.8
20260505004548 64 0 0.0 0.0 0.00 0.00 0.00 56 1012.0
20260505004026 64 0 0.0 0.0 0.00 0.00 0.00 52 1011.9
20260505003526 64 0 0.0 0.0 0.00 0.00 0.00 51 1012.2
20260505003041 64 0 0.0 0.0 0.00 0.00 0.00 50 1012.1
20260505002526 65 0 0.0 0.0 0.00 0.00 0.00 51 1012.1
20260505002026 65 0 0.0 0.0 0.00 0.00 0.00 50 1012.0
20260505001539 66 0 0.0 0.0 0.00 0.00 0.00 49 1011.9
20260505001026 67 0 0.0 0.0 0.00 0.00 0.00 47 1012.1
20260505000526 67 0 0.0 0.0 0.00 0.00 0.00 46 1012.1
20260505000056 68 0 0.0 0.0 0.00 0.00 0.00 45 1011.9
20260504235526 69 0 0.0 0.0 0.00 0.00 0.00 43 1011.9
20260504235026 70 0 0.0 0.0 0.00 0.00 0.00 42 1011.8
20260504234541 71 0 0.0 0.9 0.00 0.00 0.00 39 1011.7
20260504234025 72 0 0.0 0.9 0.00 0.00 0.00 39 1011.6
20260504233527 72 0 0.0 1.7 0.00 0.00 0.00 37 1011.6
20260504233040 73 174 0.0 5.2 0.00 0.00 0.00 35 1011.5
20260504232526 74 0 0.0 5.2 0.00 0.00 0.00 34 1011.7
20260504232026 74 0 0.0 6.1 0.00 0.00 0.00 34 1011.7
20260504231541 75 118 1.7 7.8 0.00 0.00 0.00 33 1011.6
20260504231026 75 271 0.9 7.8 0.00 0.00 0.00 32 1011.7
20260504230526 75 293 3.5 7.8 0.00 0.00 0.00 32 1011.6
20260504230057 76 265 1.7 7.8 0.00 0.00 0.00 32 1011.7
20260504225526 76 289 2.6 8.7 0.00 0.00 0.00 31 1011.6
20260504225026 76 288 3.5 9.6 0.00 0.00 0.00 30 1011.8
20260504224538 76 287 3.5 11.3 0.00 0.00 0.00 32 1011.8
20260504224026 76 271 2.6 11.3 0.00 0.00 0.00 31 1011.7
20260504223526 76 251 2.6 7.8 0.00 0.00 0.00 31 1011.6
20260504223037 76 299 2.6 8.7 0.00 0.00 0.00 32 1011.6
20260504222525 76 251 2.6 8.7 0.00 0.00 0.00 32 1011.6
20260504222025 76 202 3.5 8.7 0.00 0.00 0.00 30 1011.4
20260504221556 77 0 2.6 8.7 0.00 0.00 0.00 32 1011.5
20260504221027 77 281 4.3 8.7 0.00 0.00 0.00 30 1011.4
20260504220526 76 236 0.9 7.0 0.00 0.00 0.00 32 1011.5
20260504220041 77 265 2.6 7.0 0.00 0.00 0.00 31 1011.5
20260504215526 77 272 0.9 7.0 0.00 0.00 0.00 31 1011.5
20260504215025 76 259 0.9 7.0 0.00 0.00 0.00 32 1011.5
20260504214537 76 0 0.9 6.1 0.00 0.00 0.00 31 1011.4
20260504214025 76 240 2.6 7.8 0.00 0.00 0.00 31 1011.4
20260504213526 76 289 3.5 7.8 0.00 0.00 0.00 31 1011.5
20260504213043 77 173 2.6 6.1 0.00 0.00 0.00 30 1011.5
20260504212527 77 282 1.7 7.8 0.00 0.00 0.00 29 1011.3
20260504212027 78 293 1.7 7.8 0.00 0.00 0.00 29 1011.4
20260504211543 78 214 1.7 7.8 0.00 0.00 0.00 29 1011.4
20260504211026 78 244 1.7 10.4 0.00 0.00 0.00 29 1011.5
20260504210526 78 298 3.5 10.4 0.00 0.00 0.00 30 1011.5
20260504210038 78 240 1.7 10.4 0.00 0.00 0.00 28 1011.5
20260504205526 78 163 1.7 10.4 0.00 0.00 0.00 29 1011.5
20260504205025 78 316 4.3 10.4 0.00 0.00 0.00 29 1011.4
20260504204542 78 267 3.5 8.7 0.00 0.00 0.00 31 1011.6
20260504204026 77 286 3.5 8.7 0.00 0.00 0.00 30 1011.5
20260504203526 78 179 3.5 8.7 0.00 0.00 0.00 30 1011.6
20260504203049 78 272 2.6 7.0 0.00 0.00 0.00 31 1011.7
20260504202526 77 238 2.6 7.0 0.00 0.00 0.00 30 1011.5
20260504202025 78 263 3.5 7.0 0.00 0.00 0.00 29 1011.7
20260504201538 78 254 1.7 7.0 0.00 0.00 0.00 31 1011.7
20260504201025 77 180 2.6 7.0 0.00 0.00 0.00 29 1011.8
20260504200526 78 275 1.7 7.8 0.00 0.00 0.00 32 1011.8
20260504200038 77 169 2.6 7.8 0.00 0.00 0.00 32 1011.8
20260504195525 77 311 2.6 7.8 0.00 0.00 0.00 30 1011.9
20260504195027 77 202 0.9 7.8 0.00 0.00 0.00 30 1011.9
20260504194539 77 271 2.6 7.8 0.00 0.00 0.00 32 1012.0
20260504194026 76 0 1.7 12.2 0.00 0.00 0.00 34 1012.0
20260504193526 76 275 3.5 12.2 0.00 0.00 0.00 31 1012.2
20260504193038 76 323 3.5 7.8 0.00 0.00 0.00 31 1012.5
20260504192526 75 248 2.6 7.8 0.00 0.00 0.00 31 1012.7
20260504192023 75 245 2.6 8.7 0.00 0.00 0.00 31 1012.6
20260504191544 75 275 3.5 9.6 0.00 0.00 0.00 34 1012.7
20260504191026 75 238 3.5 9.6 0.00 0.00 0.00 33 1012.8
20260504190526 75 277 5.2 9.6 0.00 0.00 0.00 31 1012.8
20260504190045 74 0 3.5 7.8 0.00 0.00 0.00 31 1012.9
20260504185525 74 134 3.5 9.6 0.00 0.00 0.00 33 1013.0
20260504185025 73 257 4.3 11.3 0.00 0.00 0.00 31 1012.9
20260504184543 73 300 5.2 11.3 0.00 0.00 0.00 29 1013.0
20260504184027 74 231 4.3 9.6 0.00 0.00 0.00 29 1013.1
20260504183525 74 228 4.3 10.4 0.00 0.00 0.00 29 1013.1
20260504183041 73 272 4.3 13.0 0.00 0.00 0.00 30 1013.2
20260504182525 74 257 4.3 13.0 0.00 0.00 0.00 29 1013.2
20260504182025 74 281 5.2 13.0 0.00 0.00 0.00 29 1013.4
20260504181539 74 198 2.6 9.6 0.00 0.00 0.00 31 1013.3
20260504181026 74 178 2.6 10.4 0.00 0.00 0.00 33 1013.4
20260504180526 74 144 2.6 10.4 0.00 0.00 0.00 30 1013.4
20260504180044 73 269 5.2 9.6 0.00 0.00 0.00 30 1013.5
20260504175525 73 110 2.6 7.8 0.00 0.00 0.00 30 1013.6
20260504175026 73 157 2.6 7.8 0.00 0.00 0.00 30 1013.6
20260504174544 73 262 1.7 7.8 0.00 0.00 0.00 30 1013.6
20260504174026 73 232 3.5 7.8 0.00 0.00 0.00 29 1013.7
20260504173525 73 287 2.6 10.4 0.00 0.00 0.00 32 1013.8
20260504173040 72 105 4.3 10.4 0.00 0.00 0.00 31 1013.7
20260504172528 72 269 1.7 9.6 0.00 0.00 0.00 31 1013.9
20260504172025 72 205 3.5 9.6 0.00 0.00 0.00 32 1013.9
20260504171542 72 56 4.3 8.7 0.00 0.00 0.00 30 1014.0
20260504171027 73 285 1.7 7.0 0.00 0.00 0.00 35 1014.0
20260504170527 72 259 1.7 10.4 0.00 0.00 0.00 31 1014.1